Regional Weather Roundup
Issued by NWS Glasgow, MT

Home | Current Version | Previous Version | Text Only | Print | Product List | Glossary On
Versions: 1 2 3 4 5 6 7 8 9 10 11 12 13 14 15 16 17 18 19 20 21 22 23 24 25 26 27 28 29 30 31 32 33 34 35 36 37 38 39 40 41 42 43 44 45 46 47 48 49 50
406
ASUS45 KGGW 120315
RWRGGW
HOURLY REGIONAL WEATHER ROUNDUP FOR NORTHEAST MONTANA
NATIONAL WEATHER SERVICE GLASGOW MONTANA
800 PM MST THU FEB 11 2016

NOTE: "FAIR" INDICATES FEW OR NO CLOUDS BELOW 12,000 FEET WITH NO
SIGNIFICANT WEATHER AND/OR OBSTRUCTIONS TO VISISBILITY.

NORTHEAST MONTANA


CITY           SKY/WX    TMP DP  RH WIND       PRES   REMARKS
GLASGOW        CLOUDY    31  26  82 CALM      30.26R
PLENTYWOOD       N/A     20  17  88 NE6         N/A
WOLF POINT     CLOUDY    29  21  72 NE6       30.30R
JORDAN           N/A     31  28  89 S3        30.25R
WINNETT          N/A     36  32  85 CALM        N/A
SIDNEY         CLOUDY    25  18  74 N6        30.30R
GLENDIVE       CLOUDY    25  23  93 E5        30.28S
MALTA            N/A     32  28  85 SE2         N/A
SCOBEY           N/A     22  13  68 N6        30.24R

FORT PECK REPORTS


CITY           SKY/WX    TMP DP  RH WIND       PRES   REMARKS
FORT PECK        N/A     31  29  92 SW2         N/A
THE PINES        N/A     31  28  89 W1          N/A

SOUTHEAST MONTANA


CITY           SKY/WX    TMP DP  RH WIND       PRES   REMARKS
BILLINGS       CLOUDY    47  22  37 N8        30.22R
MILES CITY     CLOUDY    32  27  81 N7        30.25R
BAKER          CLOUDY    28  23  81 NW10      30.23R
LIVINGSTON     CLOUDY    47  24  40 NW6       30.23S

CENTRAL MONTANA


CITY           SKY/WX    TMP DP  RH WIND       PRES   REMARKS
HAVRE          PTCLDY    33  30  88 SW7       30.26F
LEWISTOWN      CLOUDY    39  30  70 W10       30.24R
GREAT FALLS    PTCLDY    39  30  70 NE5       30.26R
CUT BANK       CLOUDY    37  29  72 S3        30.25S
HELENA         CLOUDY    41  27  57 CALM      30.23S
BUTTE          CLOUDY    37  29  72 CALM      30.28S
BOZEMAN        CLOUDY    38  30  73 VRB3      30.26R

WESTERN MONTANA


CITY           SKY/WX    TMP DP  RH WIND       PRES   REMARKS
MISSOULA       CLOUDY    41  32  70 NW6       30.26S
KALISPELL      NOT AVBL

NORTH DAKOTA


CITY           SKY/WX    TMP DP  RH WIND       PRES   REMARKS
WILLISTON      LGT SNOW  21  16  81 N5        30.30R
DICKINSON      CLOUDY    23  19  85 N7        30.21R
MINOT          CLOUDY    17   9  70 NW5       30.27S
BISMARCK       CLOUDY    22  15  75 N9        30.28S

SOUTHERN SASKATCHEWAN


CITY           SKY/WX    TMP DP  RH WIND       PRES   REMARKS
REGINA         PTCLDY     9   3  78 N9        30.36R
ESTEVAN        MOCLDY    16  10  79 N6        30.29R
SWIFT CURRENT  CLOUDY    14  14 100 E12       30.26S





USA.gov is the U.S. government's official web portal to all federal, state and local government web resources and services.